User: anonymous   Login
Location: Lecco
(45.8566°N, 9.3977°E)
Time: 01:17:21
(UTC+02:00)
Language:

S-56A Canister/Altair - Orbit

View from above orbital plane
View from above orbital plane
View from above satellite
View from above satellite

Ground track
Ground track

The orbit data is extracted from the following two-line orbital elements,

1 00082U 61004B   21127.25864190 -.00000090  00000-0 -45031-4 0  9997
2 00082  38.8603  79.3628 1176152 206.4154 147.1628 12.26038338847554
Epoch (UTC): 07 May 2021 06:12:26
Eccentricity: 0.1176152
inclination: 38.8603°
perigee height: 632 km
apogee height: 2501 km
right ascension of ascending node: 79.3628°
argument of perigee: 206.4154°
revolutions per day: 12.26038338
mean anomaly at epoch: 147.1628°
orbit number at epoch: 84755

The dashed part of the orbit path shows where the satellite is in the earth's shadow,  

DLR